TimeEDT,TemperatureF,Dew PointF,Humidity,Sea Level PressureIn,VisibilityMPH,Wind Direction,Wind SpeedMPH,Gust SpeedMPH,PrecipitationIn,Events,Conditions,WindDirDegrees,DateUTC
12:15 AM,40.6,26.1,56,30.17,10.0,WNW,16.1,20.7,N/A,,Overcast,290,2013-03-28 04:15:00
12:35 AM,41.0,25.5,54,30.16,10.0,West,17.3,26.5,N/A,,Overcast,280,2013-03-28 04:35:00
12:55 AM,40.3,25.2,55,30.16,10.0,WNW,16.1,25.3,N/A,,Mostly Cloudy,290,2013-03-28 04:55:00
1:15 AM,40.3,24.8,54,30.16,10.0,West,19.6,25.3,N/A,,Scattered Clouds,280,2013-03-28 05:15:00
1:35 AM,40.3,24.6,54,30.16,10.0,WNW,15.0,24.2,N/A,,Scattered Clouds,290,2013-03-28 05:35:00
1:55 AM,40.1,24.8,54,30.15,10.0,WNW,11.5,17.3,N/A,,Scattered Clouds,290,2013-03-28 05:55:00
2:15 AM,40.3,24.8,54,30.15,10.0,West,8.1,21.9,N/A,,Mostly Cloudy,280,2013-03-28 06:15:00
2:35 AM,40.6,24.8,53,30.15,10.0,WNW,8.1,16.1,N/A,,Overcast,290,2013-03-28 06:35:00
2:55 AM,40.3,24.8,54,30.15,10.0,NNW,3.5,21.9,N/A,,Overcast,330,2013-03-28 06:55:00
3:35 AM,40.1,24.6,54,30.14,10.0,WNW,5.8,-,N/A,,Overcast,290,2013-03-28 07:35:00
3:55 AM,40.1,24.8,54,30.14,10.0,West,6.9,18.4,N/A,,Overcast,280,2013-03-28 07:55:00
4:15 AM,39.7,24.8,55,30.14,10.0,NW,8.1,18.4,N/A,,Overcast,310,2013-03-28 08:15:00
4:35 AM,39.4,24.8,56,30.14,10.0,WNW,13.8,20.7,N/A,,Mostly Cloudy,290,2013-03-28 08:35:00
4:55 AM,39.2,24.4,56,30.14,10.0,WNW,5.8,-,N/A,,Overcast,290,2013-03-28 08:55:00
5:15 AM,38.5,24.4,57,30.14,10.0,West,11.5,-,N/A,,Overcast,270,2013-03-28 09:15:00
5:35 AM,38.1,24.1,57,30.14,10.0,West,9.2,16.1,N/A,,Overcast,270,2013-03-28 09:35:00
5:55 AM,38.1,24.1,57,30.15,10.0,West,10.4,19.6,N/A,,Overcast,280,2013-03-28 09:55:00
6:15 AM,37.9,24.4,58,30.15,10.0,West,18.4,29.9,N/A,,Overcast,280,2013-03-28 10:15:00
6:35 AM,37.9,24.6,59,30.15,10.0,West,17.3,24.2,N/A,,Overcast,270,2013-03-28 10:35:00
6:55 AM,38.3,25.0,59,30.15,10.0,West,16.1,23.0,N/A,,Overcast,280,2013-03-28 10:55:00
7:15 AM,38.3,25.3,60,30.15,10.0,West,12.7,20.7,N/A,,Overcast,280,2013-03-28 11:15:00
7:35 AM,38.8,25.5,59,30.16,10.0,West,6.9,18.4,N/A,,Overcast,270,2013-03-28 11:35:00
7:55 AM,38.7,25.9,60,30.16,10.0,West,9.2,-,N/A,,Overcast,270,2013-03-28 11:55:00
8:15 AM,39.2,26.1,59,30.17,10.0,West,4.6,-,N/A,,Overcast,280,2013-03-28 12:15:00
8:35 AM,39.7,26.2,59,30.17,10.0,West,9.2,-,N/A,,Mostly Cloudy,280,2013-03-28 12:35:00
8:55 AM,40.3,26.4,58,30.17,10.0,WNW,5.8,-,N/A,,Mostly Cloudy,290,2013-03-28 12:55:00
9:15 AM,41.0,26.4,56,30.17,10.0,WNW,11.5,-,N/A,,Scattered Clouds,290,2013-03-28 13:15:00
9:35 AM,39.9,25.3,56,30.18,10.0,West,8.1,-,N/A,,Scattered Clouds,280,2013-03-28 13:35:00
9:55 AM,39.7,24.8,55,30.19,10.0,WNW,8.1,-,N/A,,Scattered Clouds,300,2013-03-28 13:55:00
10:15 AM,39.9,24.8,55,30.19,10.0,WNW,15.0,21.9,N/A,,Scattered Clouds,300,2013-03-28 14:15:00
10:35 AM,40.1,25.0,55,30.20,10.0,West,11.5,-,N/A,,Mostly Cloudy,280,2013-03-28 14:35:00
10:55 AM,40.1,24.8,54,30.21,10.0,WNW,9.2,-,N/A,,Overcast,300,2013-03-28 14:55:00
11:15 AM,41.5,26.2,55,30.21,10.0,WNW,10.4,16.1,N/A,,Overcast,300,2013-03-28 15:15:00
11:35 AM,41.5,25.9,54,30.21,10.0,NW,9.2,17.3,N/A,,Overcast,310,2013-03-28 15:35:00
11:55 AM,42.8,26.8,53,30.21,10.0,NW,12.7,19.6,N/A,,Overcast,310,2013-03-28 15:55:00
12:15 PM,44.2,27.7,52,30.21,10.0,WNW,11.5,17.3,N/A,,Overcast,290,2013-03-28 16:15:00
12:35 PM,45.0,27.9,51,30.21,10.0,NW,10.4,-,N/A,,Overcast,310,2013-03-28 16:35:00
12:55 PM,45.5,27.7,50,30.21,10.0,WNW,16.1,23.0,N/A,,Overcast,290,2013-03-28 16:55:00
1:15 PM,44.6,26.6,49,30.21,10.0,NW,16.1,27.6,N/A,,Overcast,310,2013-03-28 17:15:00
1:55 PM,43.9,26.6,51,30.22,10.0,NW,13.8,24.2,N/A,,Overcast,310,2013-03-28 17:55:00
2:15 PM,43.9,26.8,51,30.22,10.0,NW,11.5,-,N/A,,Overcast,310,2013-03-28 18:15:00
2:35 PM,43.9,26.8,51,30.22,10.0,WNW,13.8,-,N/A,,Overcast,300,2013-03-28 18:35:00
2:55 PM,46.4,28.6,50,30.21,10.0,West,13.8,23.0,N/A,,Overcast,280,2013-03-28 18:55:00
3:15 PM,45.7,27.9,50,30.21,10.0,West,15.0,18.4,N/A,,Overcast,270,2013-03-28 19:15:00
3:35 PM,45.1,27.3,50,30.21,10.0,WNW,12.7,16.1,N/A,,Overcast,290,2013-03-28 19:35:00
3:55 PM,45.7,27.3,49,30.21,10.0,West,10.4,-,N/A,,Overcast,260,2013-03-28 19:55:00
4:15 PM,45.5,27.0,48,30.21,10.0,West,11.5,-,N/A,,Overcast,280,2013-03-28 20:15:00
4:35 PM,45.1,27.5,50,30.21,10.0,WNW,9.2,-,N/A,,Overcast,290,2013-03-28 20:35:00
4:55 PM,44.8,27.1,50,30.21,10.0,WNW,6.9,10.4,N/A,,Overcast,300,2013-03-28 20:55:00
5:15 PM,45.1,27.7,50,30.21,10.0,WNW,10.4,-,N/A,,Overcast,290,2013-03-28 21:15:00
5:35 PM,44.6,27.3,51,30.22,10.0,WNW,11.5,-,N/A,,Overcast,300,2013-03-28 21:35:00
5:55 PM,44.2,27.5,52,30.22,10.0,WNW,10.4,-,N/A,,Overcast,300,2013-03-28 21:55:00
6:15 PM,45.0,28.0,52,30.22,10.0,WNW,9.2,-,N/A,,Overcast,300,2013-03-28 22:15:00
6:35 PM,45.0,27.5,50,30.22,10.0,WNW,3.5,-,N/A,,Overcast,300,2013-03-28 22:35:00
6:55 PM,44.8,27.1,50,30.22,10.0,NW,4.6,-,N/A,,Overcast,310,2013-03-28 22:55:00
7:15 PM,44.6,27.3,51,30.23,10.0,WNW,8.1,18.4,N/A,,Overcast,290,2013-03-28 23:15:00
7:35 PM,44.1,27.1,51,30.24,10.0,West,5.8,-,N/A,,Overcast,260,2013-03-28 23:35:00
7:55 PM,43.9,27.5,53,30.24,10.0,WNW,4.6,-,N/A,,Overcast,300,2013-03-28 23:55:00
8:15 PM,43.5,28.0,54,30.24,10.0,West,4.6,-,N/A,,Overcast,280,2013-03-29 00:15:00
8:35 PM,44.1,27.1,51,30.25,10.0,NW,3.5,-,N/A,,Overcast,320,2013-03-29 00:35:00
8:55 PM,43.9,27.3,52,30.25,10.0,WNW,3.5,-,N/A,,Overcast,300,2013-03-29 00:55:00
9:15 PM,43.9,27.1,52,30.25,10.0,NW,5.8,9.2,N/A,,Overcast,310,2013-03-29 01:15:00
9:35 PM,43.7,27.0,52,30.25,10.0,NNW,3.5,-,N/A,,Overcast,330,2013-03-29 01:35:00
9:55 PM,43.3,27.7,54,30.26,10.0,NW,3.5,-,N/A,,Overcast,310,2013-03-29 01:55:00
10:15 PM,43.7,27.1,52,30.26,10.0,NW,4.6,-,N/A,,Overcast,310,2013-03-29 02:15:00
10:35 PM,43.9,26.6,51,30.26,10.0,NNW,4.6,-,N/A,,Overcast,340,2013-03-29 02:35:00
10:55 PM,43.7,27.0,52,30.26,10.0,NNW,3.5,-,N/A,,Overcast,330,2013-03-29 02:55:00
11:15 PM,43.9,27.0,51,30.26,10.0,NNW,3.5,-,N/A,,Overcast,330,2013-03-29 03:15:00
11:35 PM,43.7,27.0,52,30.26,10.0,NNW,5.8,-,N/A,,Overcast,330,2013-03-29 03:35:00
11:55 PM,43.9,27.3,52,30.26,10.0,NW,3.5,-,N/A,,Overcast,310,2013-03-29 03:55:00